Погода в Рязаново

Россия / Тверская область     56°42′09″N   35°45′35″E
темп.,
°C
ветер,
м/с
пор.,
м/с
влажн.,
%
обл.,
%
осадки,
мм/ч
давл.,
гПа
погр.,
м
13 мая, чт
чт1300:00+13в5129524 0.1 1018533
03:00+12ююв489319 0.1 1018558
06:00+9ю359762 0.0 1019266
09:00+12юв24713 0.0 1018551
12:00+17вюв46515 0.0 10171412
15:00+18юв6954100 0.0 10151923
18:00+15юв4969100 0.1 10141116
21:00+10ююв25884 0.1 101482
14 мая, пт
пт1400:00+9ююв31097100 0.2 1014265
03:00+8ю3896100 0.2 1015192
06:00+9ююв27939 0.0 1016234
09:00+14ю4768100 0.0 1016685
12:00+17ююв465574 0.0 10151462
15:00+20ююв4749100 0.0 10141841
18:00+19ююв3659100 0.1 10121183
21:00+13вюв31094100 0.9 1011352
15 мая, сб
сб1500:00+12всв2799100 0.0 1010205
03:00+12в269957 0.1 1008154
06:00+13юв399754 0.0 1008312
09:00+18ю48799 0.0 1007645
12:00+21ю476199 0.3 10071464
15:00+21ю58610 1.4 10061368
18:00+18ююз587685 1.7 1006935
21:00+13ююз4109117 1.8 1007429
16 мая, вс
вс1600:00+13ююз51394100 0.1 1008492
03:00+12ююз4119726 0.1 1010360
06:00+12ююз389641 0.0 1011332
09:00+16юз3580100 0.0 1012670
12:00+17юз4576100 0.6 1013799
15:00+19юз346678 0.9 10131243
18:00+19зюз246842 0.1 1013677
21:00+14ююз11897 0.2 101411
17 мая, пн
пн1700:00+13ю22946 0.0 101512
03:00+12ююв2295100 0.0 101516
06:00+13юв2392100 0.0 101593
09:00+18юв347198 0.0 1015444
12:00+22юв4555100 0.0 10141249
15:00+23вюв4653100 0.0 10131433
18:00+23вюв5964100 0.1 1011885
21:00+17вюв41193100 1.9 1010275